Powrót do katalogu

SL-8 DEB

AktywnyLEO
NORAD 22842·DEBRIS·🇷🇺 Russia

Wystrzelony Feb 12, 1991 z Plesetsk Cosmodrome

Loading…

Następne Przeloty (najbliższe 24 godziny)

TLE

ŚwieżeSource: Space-Track

Epoka: Sep 14, 2026, 02:45 UTC

1 22842U 91009CM  26257.11508503  .00000127  00000-0  10820-2 0  9995
2 22842  73.8827 149.5080 0138379 156.7600 355.4841 12.36603206601161

Śledź SL-8 DEB w czasie rzeczywistym z AllMySat

Download on the App Store